TimeEST,TemperatureF,Dew PointF,Humidity,Sea Level PressureIn,VisibilityMPH,Wind Direction,Wind SpeedMPH,Gust SpeedMPH,PrecipitationIn,Events,Conditions,WindDirDegrees,DateUTC
12:15 AM,30.2,26.6,86,29.99,3.0,North,11.5,-,N/A,,Overcast,350,2013-03-08 05:15:00
12:55 AM,30.2,26.6,86,30.00,1.8,NNW,10.4,-,N/A,,Overcast,340,2013-03-08 05:55:00
1:15 AM,30.2,26.6,86,29.99,2.0,NNW,10.4,-,N/A,,Overcast,340,2013-03-08 06:15:00
1:35 AM,30.2,26.6,86,29.99,2.0,NNW,11.5,-,N/A,,Overcast,340,2013-03-08 06:35:00
1:55 AM,30.2,26.6,86,29.98,2.5,NNW,11.5,-,N/A,,Overcast,340,2013-03-08 06:55:00
2:15 AM,30.2,24.8,80,29.97,1.8,NNW,10.4,-,N/A,,Overcast,340,2013-03-08 07:15:00
2:35 AM,30.2,24.8,80,29.97,2.5,NNW,10.4,18.4,N/A,,Overcast,340,2013-03-08 07:35:00
2:55 AM,30.2,24.8,80,29.96,3.0,NNW,10.4,-,N/A,,Overcast,340,2013-03-08 07:55:00
3:15 AM,30.2,24.8,80,29.95,2.0,NNW,9.2,-,N/A,,Overcast,340,2013-03-08 08:15:00
3:35 AM,30.2,24.8,80,29.95,3.0,NNW,12.7,17.3,N/A,,Overcast,340,2013-03-08 08:35:00
3:55 AM,30.2,24.8,80,29.95,5.0,NNW,13.8,18.4,N/A,,Overcast,340,2013-03-08 08:55:00
4:15 AM,30.2,24.8,80,29.95,2.5,NNW,11.5,-,N/A,,Overcast,340,2013-03-08 09:15:00
4:35 AM,30.2,24.8,80,29.95,1.5,NNW,11.5,-,N/A,,Overcast,340,2013-03-08 09:35:00
4:55 AM,30.2,24.8,80,29.95,2.0,NNW,10.4,-,N/A,,Overcast,340,2013-03-08 09:55:00
5:15 AM,30.2,24.8,80,29.95,1.5,NNW,11.5,-,N/A,,Overcast,340,2013-03-08 10:15:00
5:35 AM,30.2,24.8,80,29.95,1.2,NNW,9.2,-,N/A,,Overcast,330,2013-03-08 10:35:00
5:50 AM,28.4,24.8,86,29.95,1.0,NNW,9.2,-,N/A,Snow,Snow,340,2013-03-08 10:50:00
6:45 AM,28.4,24.8,86,29.95,0.5,North,10.4,16.1,N/A,Fog-Snow,Snow,350,2013-03-08 11:45:00
7:45 AM,28.4,24.8,86,29.96,0.5,North,11.5,-,N/A,Fog-Snow,Snow,360,2013-03-08 12:45:00
8:45 AM,30.2,24.8,80,29.97,0.5,North,15.0,-,N/A,Fog-Snow,Snow,360,2013-03-08 13:45:00
9:45 AM,30.2,24.8,80,29.98,0.5,North,12.7,-,N/A,Fog-Snow,Snow,360,2013-03-08 14:45:00
10:45 AM,30.2,26.6,86,29.98,0.5,North,12.7,-,N/A,Fog-Snow,Snow,350,2013-03-08 15:45:00
11:45 AM,41.0,26.6,57,29.99,0.5,North,8.1,-,N/A,Fog,Unknown,350,2013-03-08 16:45:00
1:45 PM,33.8,28.4,81,29.99,0.5,NNE,13.8,-,N/A,Fog-Snow,Snow,20,2013-03-08 18:45:00
2:45 PM,35.6,30.2,81,30.00,6.0,North,11.5,-,N/A,,Overcast,360,2013-03-08 19:45:00
3:45 PM,37.4,30.2,75,30.02,10.0,North,11.5,-,N/A,,Overcast,360,2013-03-08 20:45:00
4:45 PM,37.4,26.6,65,30.05,10.0,North,13.8,-,N/A,,Overcast,10,2013-03-08 21:45:00
5:45 PM,37.4,26.6,65,30.08,10.0,North,15.0,-,N/A,,Overcast,360,2013-03-08 22:45:00
6:45 PM,35.6,24.8,65,30.11,10.0,North,11.5,19.6,N/A,,Overcast,360,2013-03-08 23:45:00
7:45 PM,35.6,24.8,65,30.14,10.0,North,11.5,19.6,N/A,,Scattered Clouds,350,2013-03-09 00:45:00
9:15 PM,37.4,23.0,56,30.15,10.0,North,15.0,-,N/A,,Partly Cloudy,350,2013-03-09 02:15:00
9:35 PM,35.6,21.2,56,30.15,10.0,North,16.1,23.0,N/A,,Clear,350,2013-03-09 02:35:00
9:55 PM,35.6,21.2,56,30.15,10.0,North,15.0,20.7,0.01,,Clear,350,2013-03-09 02:55:00
10:15 PM,35.6,21.2,56,30.16,10.0,North,16.1,23.0,N/A,,Clear,350,2013-03-09 03:15:00
10:35 PM,35.6,21.2,56,30.16,10.0,North,16.1,20.7,N/A,,Clear,350,2013-03-09 03:35:00
10:55 PM,35.6,21.2,56,30.16,10.0,North,15.0,20.7,N/A,,Clear,350,2013-03-09 03:55:00
11:15 PM,35.6,21.2,56,30.16,10.0,North,12.7,-,N/A,,Clear,350,2013-03-09 04:15:00
11:35 PM,35.6,21.2,56,30.16,10.0,North,12.7,-,N/A,,Clear,350,2013-03-09 04:35:00
11:55 PM,35.6,19.4,52,30.16,10.0,North,13.8,-,N/A,,Clear,360,2013-03-09 04:55:00